DW3835 Weather Reports


Display with metric or nautical units.
time (UTC)temp
F
wind
direction
speed
MPH
gust
MPH
rain 1hr
in
rain 24hr
in
rain mn
in
humidity
%
barometer
mb
20260508112831 53 144 0.0 4.0 0.00 0.00 0.00 89 1016.3
20260508110707 52 157 0.0 5.0 0.00 0.00 0.00 89 1016.2
20260508105732 53 183 0.0 3.0 0.00 0.00 0.00 89 1016.1
20260508104753 52 96 0.0 3.0 0.00 0.00 0.00 89 1016.2
20260508103731 52 159 0.0 6.0 0.00 0.00 0.00 89 1016.2
20260508102737 53 175 1.0 6.0 0.00 0.00 0.00 89 1016.2
20260508101719 53 187 0.0 2.0 0.00 0.00 0.00 89 1016.1
20260508100739 52 155 0.0 6.0 0.00 0.00 0.00 89 1016.2
20260508095720 52 173 1.0 6.0 0.00 0.00 0.00 88 1016.2
20260508094716 52 167 1.0 4.0 0.00 0.00 0.00 89 1016.2
20260508093642 52 130 1.0 4.0 0.00 0.00 0.00 89 1016.2
20260508092614 52 165 0.0 3.0 0.00 0.00 0.00 89 1016.3
20260508091542 53 205 0.0 6.0 0.00 0.00 0.00 89 1016.2
20260508090546 52 69 0.0 6.0 0.00 0.00 0.00 88 1016.2
20260508085546 52 112 1.0 5.0 0.00 0.00 0.00 89 1016.2
20260508084553 53 221 1.0 5.0 0.00 0.00 0.00 89 1016.2
20260508083538 53 161 0.0 5.0 0.00 0.00 0.00 89 1016.2
20260508081355 53 142 0.0 3.0 0.00 0.00 0.00 88 1016.3
20260508075251 53 163 0.0 2.0 0.00 0.00 0.00 89 1016.3
20260508074303 53 197 1.0 4.0 0.00 0.00 0.00 89 1016.2
20260508073246 54 146 1.0 7.0 0.00 0.00 0.00 89 1016.2
20260508072223 53 149 0.0 4.0 0.00 0.00 0.00 89 1016.1
20260508070051 54 172 1.0 8.0 0.00 0.00 0.00 89 1016.1
20260508065030 54 177 0.0 3.0 0.00 0.00 0.00 89 1016.2
20260508064004 54 150 1.0 4.0 0.00 0.00 0.00 89 1016.3
20260508061818 54 196 1.0 6.0 0.00 0.00 0.00 89 1016.2
20260508060759 54 42 1.0 6.0 0.00 0.00 0.00 89 1016.1
20260508052315 55 167 1.0 4.0 0.00 0.00 0.00 89 1016.1
20260508051330 55 156 1.0 4.0 0.00 0.00 0.00 88 1016.1
20260508050324 55 169 0.0 3.0 0.00 0.00 0.00 88 1016.1
20260508045306 55 198 1.0 3.0 0.00 0.00 0.00 88 1016.1
20260508044248 55 163 0.0 5.0 0.00 0.00 0.00 87 1015.9
20260508043221 56 178 0.0 5.0 0.00 0.00 0.00 87 1015.8
20260508041100 56 184 0.0 4.0 0.00 0.00 0.00 86 1015.6
20260508040047 56 155 0.0 3.0 0.00 0.00 0.00 86 1015.5
20260508035042 56 172 0.0 3.0 0.00 0.00 0.00 86 1015.4
20260508034030 57 165 0.0 7.0 0.00 0.00 0.00 85 1015.2
20260508031924 58 181 1.0 6.0 0.00 0.00 0.00 83 1015.0
20260508030913 59 193 1.0 5.0 0.00 0.00 0.00 82 1014.9
20260508025855 59 176 1.0 3.0 0.00 0.00 0.00 81 1014.9
20260508024846 60 196 1.0 4.0 0.00 0.00 0.00 80 1014.7
20260508023824 61 173 1.0 7.0 0.00 0.00 0.00 79 1014.7
20260508022806 61 181 0.0 3.0 0.00 0.00 0.00 78 1014.7
20260508021736 62 150 0.0 5.0 0.00 0.00 0.00 78 1014.7
20260508020756 62 176 0.0 5.0 0.00 0.00 0.00 76 1014.7
20260508015812 63 167 0.0 3.0 0.00 0.00 0.00 76 1014.7
20260508014819 63 140 0.0 3.0 0.00 0.00 0.00 76 1014.7
20260508013817 63 151 0.0 4.0 0.00 0.00 0.00 75 1014.7
20260508011714 64 166 0.0 3.0 0.00 0.00 0.00 75 1014.7
20260508010713 65 129 0.0 5.0 0.00 0.00 0.00 73 1014.7
20260508005718 65 173 1.0 5.0 0.00 0.00 0.00 73 1014.8
20260508003530 66 172 0.0 6.0 0.00 0.00 0.00 72 1014.9
20260508000305 67 157 0.0 4.0 0.00 0.00 0.00 69 1014.8
20260507234125 68 191 0.0 5.0 0.00 0.00 0.00 68 1014.8
20260507233107 69 158 0.0 4.0 0.00 0.00 0.00 66 1014.8
20260507232121 70 38 0.0 2.0 0.00 0.00 0.00 68 1014.9
20260507231048 71 153 0.0 2.0 0.00 0.00 0.00 66 1014.9
20260507230029 72 179 0.0 4.0 0.00 0.00 0.00 65 1014.8
20260507225004 73 110 1.0 5.0 0.00 0.00 0.00 64 1014.9
20260507223956 73 174 1.0 6.0 0.00 0.00 0.00 64 1014.9
20260507221759 73 188 1.0 7.0 0.00 0.00 0.00 64 1015.2
20260507215712 74 161 1.0 6.0 0.00 0.00 0.00 63 1015.5
20260507214735 73 153 1.0 6.0 0.00 0.00 0.00 63 1015.6
20260507213744 73 167 1.0 6.0 0.00 0.00 0.00 63 1015.7
20260507212720 73 149 0.0 3.0 0.00 0.00 0.00 65 1015.8
20260507211711 73 142 1.0 5.0 0.00 0.00 0.00 62 1015.9
20260507210703 73 169 1.0 6.0 0.00 0.00 0.00 65 1016.0
20260507205719 73 194 1.0 6.0 0.00 0.00 0.00 62 1016.1
20260507203601 72 117 1.0 6.0 0.00 0.00 0.00 63 1016.3
20260507195251 72 161 1.0 5.0 0.00 0.00 0.00 66 1016.6
20260507191935 70 175 0.0 4.0 0.00 0.00 0.00 67 1016.9
20260507190946 70 148 0.0 4.0 0.00 0.00 0.00 66 1017.0
20260507185953 69 67 0.0 3.0 0.00 0.00 0.00 69 1017.0
20260507184940 68 143 0.0 2.0 0.00 0.00 0.00 69 1017.1
20260507183956 68 129 0.0 3.0 0.00 0.00 0.00 71 1017.2
20260507183018 67 143 0.0 3.0 0.00 0.00 0.00 72 1017.3
20260507182006 65 277 0.0 5.0 0.00 0.00 0.00 72 1017.3
20260507181002 65 229 1.0 5.0 0.00 0.00 0.00 72 1017.4
20260507175936 65 192 0.0 6.0 0.00 0.00 0.00 75 1017.4
20260507174935 64 249 2.0 6.0 0.00 0.00 0.00 74 1017.4
20260507173915 64 160 0.0 4.0 0.00 0.00 0.00 76 1017.4
20260507172908 62 280 1.0 4.0 0.00 0.00 0.00 77 1017.3
20260507170659 61 198 0.0 4.0 0.00 0.00 0.00 79 1017.3
20260507165652 60 146 0.0 4.0 0.00 0.00 0.00 81 1017.4
20260507164636 59 184 0.0 3.0 0.00 0.00 0.00 84 1017.4
20260507163620 58 189 0.0 2.0 0.00 0.00 0.00 85 1017.4
20260507162558 57 142 0.0 4.0 0.00 0.00 0.00 86 1017.3
20260507161554 56 134 0.0 1.0 0.00 0.00 0.00 87 1017.4
20260507160534 56 111 0.0 2.0 0.00 0.00 0.00 88 1017.3
20260507155531 55 148 0.0 2.0 0.00 0.00 0.00 88 1017.5
20260507154537 55 194 0.0 3.0 0.00 0.00 0.00 88 1017.6
20260507153525 55 148 0.0 3.0 0.00 0.00 0.00 89 1017.5
20260507152538 55 143 0.0 2.0 0.00 0.00 0.00 89 1017.4
20260507151547 54 105 0.0 1.0 0.00 0.00 0.00 90 1017.5
20260507150557 54 142 0.0 3.0 0.00 0.00 0.00 90 1017.5
20260507145524 54 159 0.0 3.0 0.00 0.00 0.00 90 1017.6
20260507143358 53 186 0.0 3.0 0.00 0.00 0.00 90 1017.5
20260507142353 53 138 0.0 3.0 0.00 0.00 0.00 90 1017.5
20260507141400 53 173 0.0 3.0 0.00 0.00 0.00 90 1017.4
20260507140339 53 161 0.0 1.0 0.00 0.00 0.00 91 1017.3
20260507135333 53 211 0.0 1.0 0.00 0.00 0.00 91 1017.2
20260507134350 53 190 0.0 0.0 0.00 0.00 0.00 91 1017.2
20260507133325 53 174 0.0 3.0 0.00 0.00 0.00 91 1017.0
20260507132335 53 177 0.0 4.0 0.00 0.00 0.00 91 1017.0
20260507131330 53 175 0.0 4.0 0.00 0.00 0.00 91 1017.0
20260507125232 53 169 0.0 2.0 0.00 0.00 0.00 91 1016.8
20260507124237 53 141 0.0 4.0 0.00 0.00 0.00 91 1016.7
20260507123214 53 169 0.0 3.0 0.00 0.00 0.00 91 1016.7
20260507122224 53 173 0.0 2.0 0.00 0.00 0.00 91 1016.7
20260507121244 53 143 0.0 2.0 0.00 0.00 0.00 91 1016.7
20260507120302 53 171 0.0 3.0 0.00 0.00 0.00 91 1016.7
20260507115307 53 153 0.0 4.0 0.00 0.00 0.00 91 1016.8
20260507114234 53 164 0.0 5.0 0.00 0.00 0.00 91 1016.9